Location: Asheville, NC
(35.6000°N, 82.5500°W)
Time: 04:44:11
(UTC-05:00)

nSIGHT-1 - Pass Details

Date: 12 January 2018
Orbit: 386 x 394 km, 51.6° (Epoch: 22 January)

Event Time Altitude Azimuth Distance (km) Brightness Sun altitude
Exits shadow 07:01:33 - 321° (NW) 1,577 ? -8.0°
Reaches altitude 10° 07:01:57 10° 322° (NW) 1,423 ? -7.9°
Maximum altitude 07:05:03 49° 39° (NE) 513 ? -7.3°
Drops below altitude 10° 07:08:09 10° 116° (ESE) 1,420 ? -6.7°
Sets 07:10:15 0° 122° (ESE) 2,275 ? -6.3°
